GFSCGP_925_temp_021.txt.gz
Temp
17 15 15 16 16 18 19 19 18 18 20 20 19 18 19 19 18 18 13 12 11 10 10 8 8 8 8 8 8 9 11 12 14 14 15 15 15 15 15 15 15 15 15 14
16 15 17 18 18 18 18 18 17 18 19 20 18 18 18 18 19 17 14 11 11 10 9 8 7 7 7 7 7 8 8 10 11 12 12 12 13 13 13 14 14 13 13 13
15 18 18 19 19 18 18 18 18 17 18 18 19 16 18 19 15 14 12 11 10 9 8 7 7 6 6 7 6 6 7 8 9 10 11 11 12 12 12 12 12 13 12 12
16 18 18 17 17 18 18 18 18 18 17 16 17 14 17 17 13 12 11 9 8 8 8 7 7 6 6 6 6 6 6 7 7 8 9 8 7 8 8 9 10 10 11 11
17 17 17 18 18 17 17 17 18 18 16 16 16 14 15 15 14 12 10 9 8 7 7 6 6 6 6 6 6 6 5 6 6 6 6 6 7 7 7 8 8 9 9 9
16 17 18 17 18 18 17 18 17 15 14 12 14 15 15 16 15 11 10 9 8 7 6 6 7 6 6 6 6 6 5 5 5 5 5 4 4 4 5 5 5 6 6 7
17 16 17 18 18 16 17 15 13 12 11 13 15 14 16 16 14 12 9 7 6 6 5 5 5 5 5 5 5 4 4 4 4 4 4 4 4 3 3 3 3 4 4 4
15 16 16 16 17 16 15 16 13 13 12 12 14 14 16 10 10 9 8 7 6 6 5 5 5 5 5 5 4 5 4 4 4 4 3 3 3 3 3 3 3 3 3 3
15 16 16 16 17 17 16 15 15 13 8 10 13 15 11 10 9 8 8 7 6 6 5 5 5 5 5 4 4 3 3 3 3 3 3 3 3 3 2 2 3 3 3 3
15 15 15 15 16 16 16 14 13 11 10 9 12 13 14 10 9 8 7 6 6 6 6 5 5 5 5 4 4 3 3 3 3 2 2 2 2 2 2 2 2 2 2 2
15 14 14 14 14 14 14 13 14 13 11 11 9 12 12 11 9 7 7 6 5 5 5 4 5 5 4 4 4 3 3 3 2 2 2 2 1 1 1 1 1 1 1 2
13 12 9 12 13 13 13 13 13 10 11 9 11 13 11 9 8 8 7 7 5 5 4 5 5 5 4 4 3 3 3 2 2 2 1 1 0 0 0 0 0 0 1 1
12 10 7 9 11 12 12 12 11 11 9 10 10 9 8 8 8 7 6 6 5 4 4 3 4 4 4 4 4 4 3 3 2 2 1 1 0 -0 -1 -1 -1 -1 -1 -0
12 10 8 10 10 10 9 9 9 10 6 7 9 10 11 10 7 7 5 5 4 4 4 3 3 4 4 4 4 4 4 4 3 2 2 2 1 0 -0 -1 -1 -2 -2 -3
10 6 9 9 9 9 9 8 8 8 9 7 10 9 10 10 7 7 6 5 4 4 3 3 2 3 4 4 4 4 3 3 3 2 2 1 1 -0 -1 -1 -2 -2 -3 -4
9 5 7 4 7 7 7 7 7 7 7 7 8 8 9 6 6 6 5 5 5 4 4 3 2 3 4 4 4 3 2 2 2 1 1 0 -0 -2 -3 -3 -4 -5 -5 -5
6 4 0 2 6 4 2 6 7 7 7 7 6 6 1 4 5 4 4 5 4 5 5 4 2 3 3 3 2 1 1 0 -0 -1 -1 -3 -4 -4 -5 -5 -6 -6 -7 -7
5 2 -1 -2 -2 -1 5 7 7 6 5 3 1 -1 -1 2 3 4 4 3 3 3 3 3 3 3 2 1 0 -0 -1 -2 -3 -4 -5 -6 -6 -7 -7 -8 -9 -9 -10 -10
5 4 -1 -0 -5 1 5 6 6 6 4 2 2 0 2 3 3 2 4 4 3 3 3 3 3 2 0 -1 -2 -3 -3 -4 -6 -7 -7 -8 -9 -10 -11 -12 -12 -13 -13 -13
4 4 3 -7 -1 -2 3 4 4 4 2 -0 -2 -1 -0 1 -1 -1 2 3 3 4 3 1 0 -1 -1 -3 -4 -4 -6 -7 -8 -9 -10 -12 -12 -13 -14 -15 -15 -15 -16 -15
-4 -5 2 2 -2 -2 0 0 4 -0 2 -4 -2 -1 -0 -1 -0 1 1 1 3 3 1 -0 -1 -2 -4 -5 -5 -7 -8 -9 -10 -12 -13 -14 -15 -16 -16 -16 -17 -17 -17 -17
1 -1 -4 -6 -7 -1 2 2 2 1 1 0 1 1 1 1 1 0 0 0 1 -1 -2 -3 -3 -5 -6 -7 -8 -10 -11 -12 -13 -14 -15 -16 -16 -17 -17 -18 -18 -18 -18 -18
1 2 -2 0 -1 2 1 2 2 1 0 1 1 1 0 1 1 1 0 -0 -1 -1 -3 -5 -5 -7 -8 -9 -11 -12 -13 -14 -15 -16 -16 -17 -17 -18 -18 -19 -19 -19 -19 -18
1 1 1 0 2 2 2 1 2 1 1 1 1 0 0 0 0 -0 -1 -2 -3 -4 -5 -6 -7 -8 -10 -11 -13 -14 -14 -15 -16 -17 -17 -18 -18 -18 -19 -19 -19 -19 -19 -19
2 1 -0 0 3 2 2 2 3 1 1 1 -0 -0 -0 -1 -1 -1 -2 -5 -5 -6 -8 -8 -9 -11 -12 -13 -14 -14 -15 -16 -17 -18 -18 -18 -19 -19 -19 -19 -19 -19 -18 -18
3 3 2 2 4 3 4 3 2 1 1 1 -0 -0 -1 -2 -2 -4 -6 -6 -7 -8 -10 -11 -12 -13 -13 -14 -15 -15 -16 -17 -18 -19 -19 -19 -19 -19 -20 -20 -19 -19 -17 -16

GFSCGP_925_temp_024.txt.gz
Temp
17 15 15 16 15 18 18 17 17 17 18 19 18 18 17 18 18 12 10 9 8 8 7 6 6 6 7 8 8 8 10 11 13 14 13 13 12 12 13 13 14 14 13 13
15 15 16 17 16 16 16 16 16 17 17 19 17 17 17 16 14 12 10 9 8 7 7 6 6 6 5 6 6 7 8 9 10 10 10 11 11 11 10 11 11 11 12 12
15 17 16 17 17 16 16 16 17 17 17 17 17 16 17 13 11 10 9 8 7 6 6 5 5 5 5 5 5 6 6 7 8 9 11 11 11 11 11 10 11 10 10 10
15 16 17 17 17 17 16 16 17 16 16 15 17 14 15 15 11 10 8 6 6 5 5 5 5 4 4 5 6 6 6 7 7 8 7 6 5 4 4 5 7 9 9 9
16 17 17 17 17 16 17 17 17 18 16 15 15 14 14 12 11 9 7 6 6 5 5 4 4 4 5 5 5 5 6 6 6 6 6 6 5 4 5 5 6 6 7 7
15 16 17 17 16 16 16 17 14 12 12 12 14 14 14 14 14 9 7 6 6 5 4 4 5 4 4 5 5 5 5 4 5 5 5 5 4 4 4 4 4 4 4 5
16 16 17 17 17 16 16 14 13 12 11 13 14 12 14 10 11 9 7 5 5 5 4 4 4 4 4 4 4 4 4 3 4 4 4 3 3 3 3 3 3 3 3 3
15 16 15 15 16 16 14 14 12 13 11 12 12 13 14 8 7 7 6 5 5 5 4 4 4 4 4 4 4 4 4 3 3 3 3 3 3 2 2 2 2 2 2 2
13 15 15 16 16 16 15 14 14 12 4 9 12 11 10 8 7 6 6 6 5 4 4 4 4 4 4 4 4 4 4 4 4 3 3 3 3 2 2 1 1 1 1 1
15 15 15 15 16 14 15 14 12 10 10 9 11 12 12 8 7 7 6 5 5 4 4 3 3 4 4 4 3 3 3 3 3 3 3 2 2 2 2 2 2 2 2 2
14 15 13 14 13 13 13 13 13 12 10 9 8 11 12 10 8 7 6 6 4 4 3 3 3 4 4 4 4 3 3 3 3 2 2 2 2 1 1 1 1 1 1 1
13 12 9 12 13 12 14 12 12 10 10 9 10 12 11 10 8 7 6 6 5 4 3 3 3 4 4 4 3 3 3 3 2 2 2 1 1 1 0 -0 -0 -0 -0 -0
12 10 6 9 12 12 12 11 11 9 7 7 9 10 9 8 8 7 6 5 5 4 3 2 2 3 3 3 3 3 3 3 2 2 1 1 1 -0 -0 -1 -1 -1 -2 -2
12 9 9 12 11 10 10 9 9 10 6 7 9 9 10 8 7 7 6 5 4 3 3 1 1 2 3 3 4 3 3 3 3 2 2 2 1 -0 -1 -1 -1 -2 -3 -4
11 10 8 9 10 9 9 9 8 8 8 8 10 8 10 9 7 6 6 5 3 3 2 1 1 1 3 3 4 4 4 3 3 2 2 1 0 -0 -1 -1 -2 -3 -4 -5
9 6 7 5 7 8 7 8 7 7 8 7 8 8 9 7 6 5 5 4 3 3 2 2 1 2 3 4 4 3 3 2 1 1 -0 -0 -1 -1 -2 -4 -5 -6 -7 -7
7 4 3 5 4 5 2 4 7 8 7 7 7 7 2 5 5 4 3 4 3 3 3 2 1 3 4 4 3 2 1 0 0 -1 -1 -2 -4 -5 -6 -7 -7 -8 -9 -10
5 4 3 0 -2 0 6 5 6 6 6 3 2 -0 1 3 3 3 2 2 2 2 2 1 3 3 3 2 1 0 -1 -2 -2 -3 -4 -6 -7 -8 -9 -9 -10 -11 -12 -13
5 5 -1 1 -3 2 6 6 5 5 4 1 2 0 2 2 2 2 2 2 2 1 3 4 4 3 1 0 -1 -2 -3 -3 -4 -5 -8 -9 -10 -11 -12 -12 -13 -14 -14 -15
4 5 4 -6 -2 -0 4 5 4 4 2 -3 -1 -0 -1 0 -2 -0 1 2 2 3 3 3 2 1 -1 -2 -3 -4 -5 -6 -7 -9 -10 -11 -11 -12 -13 -14 -15 -15 -16 -17
-2 -1 3 2 -4 -3 0 0 4 0 4 -4 -3 -0 -1 -1 1 1 1 1 2 3 3 2 0 -1 -3 -5 -5 -6 -8 -9 -10 -11 -11 -12 -13 -14 -14 -15 -16 -17 -17 -18
1 -0 -2 -4 -2 -1 1 1 2 3 1 -0 0 1 0 1 1 0 0 -0 0 0 -0 -1 -3 -4 -6 -6 -7 -8 -9 -11 -12 -12 -13 -14 -14 -14 -15 -16 -16 -17 -18 -19
2 2 -2 -0 -1 3 1 3 3 1 1 1 1 1 1 1 0 0 -0 -1 -0 1 -1 -3 -4 -6 -7 -8 -8 -9 -11 -12 -13 -14 -14 -14 -15 -16 -17 -17 -17 -19 -19 -19
1 1 0 0 2 2 2 3 2 1 1 1 1 1 0 1 -0 -0 -1 -1 -2 -1 -3 -4 -6 -8 -9 -10 -11 -11 -12 -13 -14 -15 -15 -15 -17 -17 -17 -18 -18 -19 -20 -20
0 0 -2 -1 2 1 1 1 2 2 0 0 -0 -0 0 -1 -0 -1 -2 -3 -2 -4 -5 -6 -8 -9 -11 -12 -12 -12 -13 -14 -15 -16 -16 -17 -17 -18 -18 -19 -19 -19 -18 -18
1 3 2 2 4 3 4 3 2 1 1 0 -0 -1 -2 -2 -1 -2 -3 -2 -3 -6 -7 -9 -10 -11 -12 -13 -13 -13 -15 -16 -16 -17 -17 -18 -18 -19 -19 -20 -20 -18 -17 -16

GFSCGP_925_temp_030.txt.gz
Temp
15 15 14 15 15 17 16 16 17 17 17 18 16 15 16 12 8 6 6 5 5 5 5 5 5 5 6 8 9 10 11 10 12 12 11 10 9 9 9 9 10 10 11 11
14 14 15 16 14 16 16 16 15 15 15 16 15 15 15 10 9 7 6 5 5 4 4 4 5 5 5 5 6 8 9 10 11 11 9 9 8 7 8 8 9 9 9 9
14 17 14 16 15 14 14 14 14 16 16 15 15 14 12 8 7 6 6 5 5 4 3 3 3 3 4 5 6 7 7 8 9 9 9 9 8 7 6 6 6 6 7 7
14 15 16 14 15 14 14 14 15 16 15 14 15 14 14 9 7 6 5 4 4 3 3 3 3 3 3 4 5 7 7 8 8 9 9 7 4 2 2 3 4 4 5 5
15 14 14 14 15 15 15 14 14 15 13 14 14 13 12 9 9 6 5 4 3 3 2 2 2 3 3 4 5 5 6 6 6 6 6 5 4 4 4 4 4 4 4 4
14 15 14 15 14 14 13 13 12 10 11 11 14 14 13 10 11 7 5 4 3 2 2 2 3 3 3 3 4 4 5 4 5 6 5 5 4 4 4 3 3 3 3 3
14 14 15 15 14 15 14 14 13 12 11 12 12 11 13 12 9 8 6 4 3 2 2 1 2 2 3 3 3 3 4 4 4 5 4 4 4 3 3 2 2 2 2 2
13 14 13 13 15 14 13 14 12 13 11 12 11 11 14 8 6 5 6 4 3 2 2 1 2 2 2 3 3 3 3 3 3 3 3 2 2 2 2 2 1 1 1 1
12 15 14 14 14 15 13 13 13 11 2 8 12 12 9 7 6 4 4 4 3 2 2 1 2 3 3 3 3 3 3 2 2 2 2 2 2 2 2 1 1 1 1 0
14 15 13 13 14 13 14 12 13 10 11 9 12 11 14 9 7 4 4 4 3 2 2 1 2 3 3 3 3 3 3 3 2 2 3 2 2 1 1 1 1 1 1 1
13 15 13 13 13 12 12 12 12 12 10 11 9 13 10 10 7 5 5 5 4 3 2 1 2 3 4 3 3 3 3 3 3 2 2 2 2 1 1 1 0 -0 -0 -0
13 12 9 12 11 11 12 12 11 13 11 7 9 14 7 9 7 7 6 5 4 3 2 2 3 3 2 3 3 3 3 3 3 2 2 1 1 1 1 0 -0 -1 -1 -1
12 11 8 10 12 10 11 10 10 8 7 7 13 12 8 6 6 6 5 4 4 3 2 1 2 1 2 2 3 3 3 3 2 2 1 1 0 0 -0 -0 -1 -1 -1 -1
13 10 11 14 12 10 10 9 8 11 11 12 12 13 10 9 8 6 5 5 4 3 3 1 0 1 2 3 3 3 3 3 2 2 1 0 -0 -0 -0 -1 -1 -1 -2 -2
12 11 10 11 11 10 11 10 8 9 11 13 13 10 9 9 8 7 6 5 4 3 2 1 0 0 2 2 2 3 3 3 2 1 0 -0 -1 -1 -1 -1 -1 -2 -2 -3
8 9 8 7 8 9 8 9 8 9 9 8 8 8 9 8 7 6 5 5 4 3 3 2 1 1 1 2 3 3 3 2 2 1 0 -1 -1 -1 -1 -1 -2 -2 -3 -4
8 6 6 10 5 7 8 7 8 8 7 10 8 10 3 6 5 4 4 3 3 3 3 2 1 1 2 3 4 3 3 2 1 0 -1 -1 -2 -1 -2 -2 -3 -4 -5 -6
5 6 6 5 4 7 8 5 6 8 8 6 4 2 2 4 4 4 2 2 2 2 2 1 2 2 3 4 4 3 2 1 -0 -1 -1 -2 -2 -2 -3 -4 -4 -5 -6 -7
5 6 4 5 5 6 7 5 5 7 7 3 5 5 4 3 2 2 2 1 1 1 2 3 4 4 4 4 4 2 1 0 -1 -2 -2 -2 -2 -3 -3 -4 -5 -7 -8 -9
3 5 8 2 5 6 6 5 4 6 4 0 1 2 -0 1 1 2 2 0 0 2 3 4 4 4 4 4 3 1 0 -1 -2 -3 -3 -3 -3 -4 -5 -6 -8 -9 -10 -11
3 3 7 4 5 3 2 1 4 4 6 -3 -2 -1 -1 0 2 3 2 0 2 3 3 4 4 4 4 3 1 -1 -1 -2 -3 -4 -4 -5 -5 -6 -7 -8 -10 -11 -11 -12
4 4 3 3 4 5 1 2 5 4 0 0 1 2 1 2 3 1 1 0 0 1 3 3 3 3 3 2 -0 -2 -3 -3 -4 -5 -6 -6 -7 -8 -9 -10 -11 -12 -13 -14
5 5 3 5 4 2 3 4 3 2 1 1 1 1 1 1 1 0 -0 -1 -1 1 2 3 2 2 1 0 -1 -3 -3 -5 -6 -7 -7 -7 -9 -9 -10 -11 -12 -13 -14 -16
1 1 2 3 2 2 2 2 2 1 2 2 1 2 0 1 1 0 -1 -2 -2 1 1 3 0 -1 -1 -2 -3 -4 -5 -6 -7 -8 -8 -9 -10 -10 -12 -13 -13 -14 -15 -16
2 1 -1 -0 2 2 2 2 3 1 1 1 0 0 0 -1 -1 -1 -2 -3 -2 -0 0 -0 -1 -1 -1 -3 -5 -6 -7 -8 -8 -9 -10 -11 -12 -13 -13 -14 -14 -14 -15 -17
1 2 2 1 3 4 4 2 2 1 1 0 -0 -1 -2 -2 -2 -2 -3 -1 -1 -1 -1 -2 -2 -3 -3 -5 -7 -8 -8 -9 -10 -11 -12 -13 -14 -14 -15 -16 -15 -15 -17 -16

GFSCGP_925_temp_033.txt.gz
Temp
14 15 15 15 15 17 15 16 17 16 17 18 16 16 16 10 8 7 6 6 6 5 4 4 5 5 6 8 9 9 10 10 11 11 11 10 9 9 9 9 9 10 10 10
14 14 15 15 14 16 15 16 15 15 15 16 15 15 14 10 9 8 6 6 6 5 4 3 4 5 5 5 6 8 9 10 10 10 8 8 7 6 6 7 7 7 7 7
14 17 13 15 14 14 14 14 14 16 15 14 15 14 12 8 7 6 6 5 5 5 4 3 3 4 5 6 6 7 8 9 8 8 8 8 7 6 6 6 6 6 6 6
14 15 15 14 15 14 14 13 14 15 15 15 14 15 14 9 7 6 5 5 4 4 3 3 2 3 4 5 7 8 8 9 8 9 9 8 5 3 3 4 4 4 5 5
15 13 14 14 14 14 15 12 13 14 13 14 13 13 13 9 10 7 5 4 4 3 3 2 2 2 3 5 5 6 7 7 7 8 8 7 4 3 3 4 4 4 4 4
14 14 13 14 13 14 11 12 11 10 11 11 13 14 13 12 12 7 6 5 4 3 2 2 2 3 3 3 4 5 6 5 6 5 5 5 4 4 4 3 3 3 3 3
14 14 14 14 13 13 13 13 13 13 11 13 11 12 14 13 10 9 7 5 4 3 2 2 2 2 2 3 3 4 4 3 4 4 4 4 4 4 3 3 2 3 2 2
12 14 13 13 14 13 11 14 13 13 12 12 10 12 14 9 6 6 6 6 4 3 2 2 2 2 3 3 3 3 3 3 3 4 3 3 3 3 2 2 2 1 1 1
12 13 13 13 13 14 13 13 13 10 2 9 12 12 12 7 7 5 4 4 4 3 2 2 2 3 3 3 3 3 3 3 3 3 3 3 2 2 2 1 1 1 0 -0
14 15 13 13 13 13 13 12 13 10 12 10 12 12 14 10 8 4 4 4 4 3 2 2 2 3 3 3 3 2 3 3 2 2 2 2 2 1 1 1 1 1 0 0
13 15 12 13 12 12 12 12 11 12 11 12 10 13 10 12 9 6 5 5 5 4 3 2 2 3 3 3 2 2 2 2 2 2 1 2 1 1 1 1 1 0 0 0
13 12 10 12 11 10 12 12 12 13 11 8 9 14 9 9 8 7 6 5 4 4 4 3 2 3 2 2 2 2 2 2 2 2 1 1 1 1 0 0 0 0 -0 -1
12 12 10 12 12 10 10 10 10 9 8 8 11 12 8 6 6 5 5 5 5 4 3 2 1 2 2 2 2 2 2 2 2 1 1 1 1 0 0 0 0 -0 -1 -1
15 11 13 16 14 11 10 9 9 12 8 11 13 14 9 8 8 5 5 4 3 4 3 2 1 1 1 2 3 2 2 2 2 1 1 1 0 0 -0 -0 -0 -1 -1 -1
12 12 9 11 12 11 11 10 8 11 13 13 14 11 11 9 8 7 6 4 4 4 3 2 2 1 1 2 2 2 3 2 2 1 1 1 0 -0 -1 -1 -1 -1 -1 -2
8 11 9 8 9 10 9 10 9 10 11 11 11 10 10 9 6 6 5 5 4 4 3 3 2 1 1 2 2 3 3 2 2 1 1 0 -1 -1 -2 -2 -2 -2 -3 -3
8 8 9 12 6 7 9 9 9 9 8 11 10 12 6 7 7 6 5 5 4 4 3 2 2 2 2 2 3 3 3 3 2 2 1 -0 -1 -2 -2 -3 -3 -3 -3 -3
7 8 8 4 6 10 8 4 7 9 8 5 5 2 5 6 5 5 3 3 3 3 3 2 3 3 4 3 3 4 3 2 2 1 -0 -1 -2 -3 -3 -4 -4 -4 -4 -4
6 7 5 7 7 7 7 5 6 7 8 4 7 5 4 3 3 4 2 2 3 2 3 4 5 5 4 4 4 3 3 2 1 0 -0 -1 -3 -4 -4 -4 -5 -4 -5 -6
4 5 9 4 7 9 8 5 5 7 7 1 4 3 -0 1 2 3 2 1 1 3 3 4 4 4 4 4 4 3 2 1 1 0 -0 -2 -4 -5 -5 -5 -5 -5 -6 -7
4 4 8 6 6 6 4 2 4 7 9 0 -0 -0 0 2 4 3 2 0 2 3 3 4 3 3 5 4 3 2 1 1 2 -1 -3 -4 -5 -5 -6 -6 -6 -6 -7 -8
6 6 5 5 5 7 2 3 6 6 1 1 1 1 1 2 3 2 1 1 1 1 2 3 2 3 4 3 2 2 1 3 -0 -2 -4 -5 -5 -6 -7 -7 -7 -8 -9 -10
6 5 5 6 6 3 4 5 4 3 2 2 2 2 2 2 2 2 2 0 0 1 2 3 2 3 3 3 2 1 2 -0 -2 -4 -5 -6 -7 -7 -8 -8 -9 -10 -10 -11
2 2 3 4 2 3 3 3 3 3 4 3 2 2 0 2 1 1 -0 -1 -1 1 1 2 1 1 2 2 1 1 -1 -2 -4 -5 -7 -7 -8 -8 -9 -10 -10 -11 -11 -12
3 2 0 1 2 3 3 2 3 2 2 1 1 0 1 -0 -0 -1 -2 -3 -2 -0 1 0 0 0 1 1 -0 -2 -4 -4 -6 -7 -8 -9 -9 -10 -10 -11 -11 -12 -12 -13
1 2 3 2 4 5 5 4 2 2 1 -0 -1 -1 -2 -2 -1 -2 -3 -1 -0 -0 -0 -1 -1 -1 -0 -2 -3 -5 -6 -7 -7 -8 -10 -10 -11 -11 -12 -12 -13 -13 -15 -15